weather.gov     
National Weather Service

Regional Weather Roundup
NWS Homepage
This page is being discontinued on March 12, 2014.
The same data is available at this site. Please update your bookmarks.
Thank you, and we apologize for the inconvenience.
Please send an email to SR-SRH.Webmaster@noaa.gov with any concerns.


Current Version
Previous Version:    01  02  03  04  05  06  07  08  09  10  11  12  13  14  15  16  17  18  19  20  21  22  23  24  25  26  27  28  29  30  
   31  32  33  34  35  36  37  38  39  40  41  42  43  44  45  46  47  48  49  50  51  52  53  54  
[Printable]
587
ASUS45 KABQ 220110
RWRNM
WEATHER ROUNDUP FOR NEW MEXICO
NATIONAL WEATHER SERVICE ALBUQUERQUE NM
600 PM MST SUN DEC 21 2014

NOTE: "FAIR" MEANS FEW OR NO CLOUDS BELOW 12,000 FEET AGL WITH NO
       SIGNIFICANT WEATHER OR OBSTRUCTIONS TO VISION.

      THIS PRODUCT IS RELEASED AS TWO VERSIONS.  ONE VERSION NEAR
      THE TOP OF THE HOUR CONTAINING PRELIMINARY DATA FROM ALBUQUERQUE
      AND OTHER STATIONS.  A FINAL VERSION WITH ADDITIONAL DATA IS
      ISSUED ABOUT 10 MINUTES AFTER THE HOUR.

NMZ501-503-504-510>518-220200-
NORTHWEST PLATEAU/NORTHCENTRAL MOUNTAINS

CITY           SKY/WX    TMP DP  RH WIND       PRES   REMARKS
FARMINGTON     PTCLDY    38  30  73 SW6       29.96S WCI  33
LOS ALAMOS     PTCLDY    36  27  71 S6        29.90S WCI  31
SANTA FE       PTCLDY    37  25  61 N5        29.89S WCI  33
TAOS           MOCLDY    32  25  74 SW3       29.89R
ANGEL FIRE     CLOUDY    32  25  76 CALM      29.86S

$$
NMZ402-403-502-505>509-220200-
WESTCENTRAL MOUNTAINS/SOUTHWEST MOUNTAINS

CITY           SKY/WX    TMP DP  RH WIND       PRES   REMARKS
GALLUP         MOCLDY    39  30  70 S8        30.03R WCI  33
GRANTS         PTCLDY    41  28  58 CALM      29.99S
SILVER CITY    MOCLDY    45  27  49 NW16      30.02R

$$
NMZ407-409-411-412-220200-
SOUTHERN DESERTS

CITY           SKY/WX    TMP DP  RH WIND       PRES   REMARKS
LORDSBURG      FAIR      46  32  57 NW7       30.02R
DEMING         PTCLDY    51  30  44 W17       29.98R
LAS CRUCES     MOCLDY    53  26  35 W20G28    29.94R
HOLLOMAN AFB   MOCLDY    47  31  53 NE8       29.89S
ALAMOGORDO     MOCLDY    48  28  46 NE9       29.92R
T OR C         CLEAR     49  27  42 W5        29.91R

$$
NMZ519>523-220200-
CENTRAL VALLEYS/CENTRAL HIGHLANDS

CITY           SKY/WX    TMP DP  RH WIND       PRES   REMARKS
ALBUQUERQUE    MOCLDY    46  29  51 N8        29.92F
DOUBLE EAGLE   PTCLDY    37  28  70 S5        29.93F WCI  34
MORIARTY ARPT  FAIR      43  26  52 W9G17     29.92R
CLINES CORNERS PTCLDY    39  25  57 W35G44    29.84R WCI  26
BELEN          FAIR      42  28  57 SE7       29.93F
SOCORRO        FAIR      46  26  45 NW6       29.93R

$$
NMZ524>526-539-540-220200-
SOUTHCENTRAL MOUNTAINS

CITY           SKY/WX    TMP DP  RH WIND       PRES   REMARKS
RUIDOSO        PTCLDY    46  23  39 NW14G28   29.92R

$$
NMZ527>531-220200-
NORTHEAST HIGHLANDS/NORTHEAST PLAINS

CITY           SKY/WX    TMP DP  RH WIND       PRES   REMARKS
LAS VEGAS      PTCLDY    45  24  43 NW23G39   29.73R
RATON          CLOUDY    37  19  48 NE5       29.66R WCI  33
CLAYTON        CLOUDY    45  25  45 W10       29.60S

$$
NMZ532>537-220200-
EASTCENTRAL PLAINS

CITY           SKY/WX    TMP DP  RH WIND       PRES   REMARKS
TUCUMCARI      CLOUDY    54  26  34 W23       29.60R
CANNON AFB     MOCLDY    53  26  35 W18G28    29.66S
CLOVIS AIRPORT CLOUDY    54  27  35 W18G28    29.64S

$$
NMZ028-029-538-220200-
SOUTHEAST PLAINS

CITY           SKY/WX    TMP DP  RH WIND       PRES   REMARKS
ROSWELL        CLOUDY    59  26  28 W17       29.73F
ARTESIA        CLOUDY    57  27  30 W24G35    29.76F
CARLSBAD       CLOUDY    61  24  24 W25G38    29.75R
HOBBS          CLEAR     57  27  30 SW17G29   29.72F


$$




U.S. Dept. of Commerce
NOAA National Weather Service
1325 East West Highway
Silver Spring, MD 20910
E-mail: w-nws.webmaster@noaa.gov
Page last modified: May 16, 2007
NATIONAL WEATHER SERVICE: for Safety, for Work, for Fun - FOR LIFE